Regional Weather Roundup
Issued by NWS Newport/Morehead, NC

Current Version | Previous Version | Text Only | Print | Product List | Glossary Off
Versions: 1 2 3 4 5 6 7 8 9 10 11 12 13 14 15 16 17 18 19 20 21 22 23 24 25 26 27 28 29 30 31 32 33 34 35 36 37 38 39 40 41 42 43 44 45 46 47 48 49 50
000 ASUS42 KMHX 301025 RWRMHX WEATHER ROUNDUP FOR EASTERN NORTH CAROLINA NATIONAL WEATHER SERVICE NEWPORT/MOREHEAD CITY NC 600 AM EDT SAT MAY 30 2015 NOTE: "FAIR" INDICATES FEW OR NO CLOUDS BELOW 12,000 FEET WITH NO SIGNIFICANT WEATHER AND/OR OBSTRUCTIONS TO VISIBILITY NCZ015>017-031-032-045>047-102-103-301100- NORTH COAST CITY SKY/WX TMP DP RH WIND PRES REMARKS EDENTON PTCLDY 66 64 94 CALM 30.22R ELIZABETH CITY PTCLDY 66 66 100 CALM 30.22R FOG KITTY HAWK PTSUNNY 70 65 85 CALM 30.21R MANTEO MOCLDY 67 65 93 CALM 30.22R $$ NCZ045>047-081-094-103-104-301100- CENTRAL COAST CITY SKY/WX TMP DP RH WIND PRES REMARKS FRISCO CLEAR 69 63 81 CALM 30.21R SWANQUARTER N/A 66 N/A N/A E2 30.18S $$ NCZ095-097-098-100-101-301100- SOUTHERN COAST CITY SKY/WX TMP DP RH WIND PRES REMARKS BEAUFORT PTCLDY 67 66 97 CALM 30.20R CEDAR ISLAND N/A 68 N/A N/A CALM 30.24S JACKSONVILLE CLEAR 68 65 90 N3 30.19R PINEY ISLAND MOSUNNY N/A N/A N/A CALM 30.20R WILMINGTON PTCLDY 67 65 93 CALM 30.18R $$ NCZ011>013-027>030-043-044-078>080-089-090>093-098-301100- COASTAL PLAIN CITY SKY/WX TMP DP RH WIND PRES REMARKS AHOSKIE CLEAR 62 62 98 CALM 30.22R FOG CLINTON CLOUDY 67 67 100 CALM 30.20R ELIZABETHTOWN FOG 65 65 100 CALM 30.20R VSB 1 GOLDSBORO CLOUDY 68 66 96 CALM 30.18R GREENVILLE PTCLDY 64 64 100 CALM 30.22R HAVELOCK PTCLDY 65 61 87 CALM 30.21R KENANSVILLE MOCLDY 64 63 96 CALM 30.21R FOG KINSTON MOCLDY 68 67 94 CALM 30.21R NEW BERN PTCLDY 65 62 90 CALM 30.21R RICHLANDS N/A 64 61 88 CALM 30.20R VSB 1/2 ROCKY MOUNT PTCLDY 66 65 96 CALM 30.22R FOG WASHINGTON CLEAR 65 63 95 CALM 30.22R WHITEVILLE CLEAR 65 64 96 CALM 30.19R FOG $$ AMZ130-135-150-152-154-156-158-170-250-252-270-ANZ085-086-088-633-658-670-301100- MARINE OBSERVATIONS STATION/POSITION TIME TEMP WIND PRES WAVE SWELL AIR SEA DIR/SP/G HT/PER HT/PER (UTC) (F) (DEG/KT/KT) (MB) (FT/S) (FT/S) CHESAPEAKE LIGHT 1000 68 150/ 9/ 9 1023.9 64 E VA BEACH 0950 69 66 120/ 4/ 4 1023.0 3/ 9 3/ 9 DUCK 1000 69 58 100/ 4/ 5 1022.4 2 E DUCK 0911 64 N/A 3/ 9 OREGON INLET 1000 72 75 120/ 3/ 4 1023.2 13E OREGON INLT 1000 75 N/A 4/ 8 2/11 HATTERAS CG 1000 74 77 120/ 3/ 4 1022.6 DIAMOND BUOY 0950 75 79 130/ 8/ 10 1022.7 4/ 9 3/ 9 CAPE LOOKOUT 1000 74 80/ 3/ 3 1022.2 BEAUFORT LAB 1000 72 76 10/ 1/ 1 1021.8 27 SE WRIGHTSVLE 1000 75 160/ 4/ 8 N/A 5 SE WRIGHTSVLE 0908 76 77 170/ 8/ 10 1021.5 225 S CAPE HAT 0950 74 74 60/ 8/ 10 1021.0 6/ 9 7/ 9 41 SE CHARLESTON 0950 77 79 100/ 12/ 14 1019.9 5/ 8 3/ 8 $$

USA.gov is the U.S. government's official web portal to all federal, state and local government web resources and services.